Regional Weather Roundup
Issued by NWS

Home | Current Version | Previous Version | Text Only | Print | Product List | Glossary On
Versions: 1 2 3 4 5 6 7 8 9 10 11 12 13 14 15 16 17 18 19 20 21 22 23 24 25 26 27 28 29 30 31 32 33 34 35 36 37 38 39 40 41 42 43 44 45 46 47 48 49 50
000
ASUS43 KLOT 301009
RWRIL

ILLINOIS REGIONAL WEATHER ROUNDUP
NATIONAL WEATHER SERVICE CHICAGO/ROMEOVILLE IL
500 AM CDT TUE MAY 30 2017

NOTE: "FAIR" INDICATES FEW OR NO CLOUDS BELOW 12,000 FEET WITH NO
SIGNIFICANT WEATHER AND/OR OBSTRUCTIONS TO VISIBILITY.

* THESE STATIONS ARE NOT UNDER NWS QUALITY CONTROL. THEY ALSO MAY NOT
  REPORT WEATHER SUCH AS PRECIPITATION OR FOG.

ILZ001-002-007-009-015-016-024-301100-
NORTHWEST ILLINOIS

CITY           SKY/WX    TMP DP  RH WIND       PRES   REMARKS
MOLINE         CLEAR     53  46  77 W7        29.98R
STERLING*      PTCLDY    54  48  80 W7        29.96S
SAVANNA*       CLOUDY    56  47  72 W7        29.96R
$$

ILZ003-004-008-010-011-017-018-301100-
NORTH CENTRAL ILLINOIS

CITY           SKY/WX    TMP DP  RH WIND       PRES   REMARKS
ROCKFORD       PTCLDY    52  47  83 W7        29.95R
FREEPORT*      CLOUDY    52  47  82 W7        29.96R
ROCHELLE*      CLEAR     50  47  90 W7        29.95R
DE KALB*       CLEAR     53  47  79 W8        29.94R
PERU*          CLOUDY    53  46  76 W9        29.97R
$$

ILZ005-006-012>014-019>023-301100-
NORTHEAST ILLINOIS

CITY           SKY/WX    TMP DP  RH WIND       PRES   REMARKS
CHICAGO-OHARE  CLEAR     54  46  74 W6        29.92R
CHICAGO-MIDWAY PTCLDY    57  47  69 SW7       29.92R
AURORA         CLEAR     52  47  83 W6        29.94R
LANSING*       CLEAR     54  48  81 W5        29.94R
JOLIET*        CLEAR     53  48  82 CALM      29.94S
WAUKEGAN       CLEAR     54  49  83 VRB3      29.90R
DUPAGE AIRPORT CLEAR     52  48  86 W6        29.92R
KANKAKEE*      CLEAR     52  44  74 CALM      29.95S
WHEELING       CLEAR     56  48  74 W6        29.92S
MORRIS*        CLEAR     52  46  80 CALM      29.94R
ROMEOVILLE*    CLEAR     52  49  90 W8        29.94R
NORTHERLY ISL    N/A     59  45  59 W9          N/A
$$

LMZ740>746-301100-
SOUTHERN LAKE MICHIGAN

STATION/POSITION SKY/WX   TEMP    WIND        PRES    VSBY  WAVE
                          AIR SEA DIR/SP/G                  HT/PER
                          (F)     (DEG/KT/KT) (MB)    (MI)  (FT/S)
WILMETTE HARBOR            55 53  260/  8/  8   N/A           1
HARRISON CRIB              61     270/ 14/ 15   N/A
BURNHAM HARBOR             59     280/  7/ 10   N/A
CALUMET HARBOR             59     240/  3/  5 1012.9R
BURNS HARBOR               60     240/ 10/ 12 1013.9R
MICHIGAN CITY              58     220/ 11/ 12   N/A
MICHIGAN CITY 6N           58 57  250/ 12/ 12   N/A           1/ 2
ST. JOSEPH                 58 59  230/  8/ 10 1013.0          1/ 3
$$

ILZ025>027-034>036-040-047-049-050-058-095>099-301100-
WEST-CENTRAL ILLINOIS

CITY           SKY/WX    TMP DP  RH WIND       PRES   REMARKS
QUINCY         CLEAR     56  45  66 W5        30.02S
GALESBURG*     CLEAR     54  46  75 SW3         N/A
MACOMB*        CLEAR     51  46  84 W5        30.03S
JACKSONVILLE*  MOCLDY    58  47  67 SW6       30.01S
PITTSFIELD*    MOCLDY    60  48  63 W3        30.04R
$$

ILZ028>032-037-038-041>044-048-051>054-059>061-301100-
CENTRAL ILLINOIS

CITY           SKY/WX    TMP DP  RH WIND       PRES   REMARKS
PONTIAC        CLEAR     55  49  81 SW5       29.98R
BLOOMINGTON    CLEAR     54  45  71 W8        29.99R
DECATUR        CLOUDY    60  47  61 W6        29.99S
PEORIA         CLEAR     55  46  71 W5        30.00R
LACON*         PTCLDY    56  47  70 W5        29.98R
LINCOLN*       PTCLDY    61  46  57 CALM      29.99S
SPRINGFIELD    PTCLDY    59  50  72 SW5       30.00S
TAYLORVILLE    CLOUDY    62  50  66 W6        30.01R
$$

ILZ033-039-045-046-055>057-062-063-301100-
EAST-CENTRAL ILLINOIS

CITY           SKY/WX    TMP DP  RH WIND       PRES   REMARKS
CHAMPAIGN      MOCLDY    57  47  69 W6        29.98S
RANTOUL*       CLEAR     57  47  70 W6        29.97S
MATTOON        MOCLDY    62  48  60 SW6       29.98S
PARIS*         MOCLDY    56  52  84 SW6       29.99S
$$

ILZ079-100>102-301100-
SOUTHWEST ILLINOIS

CITY           SKY/WX    TMP DP  RH WIND       PRES   REMARKS
ALTON          CLEAR     55  52  88 CALM      30.02S
BELLEVILLE     CLEAR     56  55  94 CALM      30.03S
CAHOKIA*       PTCLDY    56  55  97 CALM      30.02R FOG
SPARTA*        CLEAR     60  56  89 CALM      30.04R
$$

ILZ064>066-069>071-074>076-080>082-084>086-088>090-092>094-301100-
SOUTH-CENTRAL ILLINOIS

CITY           SKY/WX    TMP DP  RH WIND       PRES   REMARKS
CARBONDALE     PTCLDY    58  58 100 CALM      30.02R
CAIRO*         CLOUDY    65  63  94 SE3       30.02S
EFFINGHAM*     CLEAR     54  54 100 CALM      30.02R
MARION         FOG       57  57 100 CALM      30.03S VSB 1/4
MT. VERNON     FOG       51  51 100 CALM      30.02S VSB 1/4
CENTRALIA*     CLEAR     57  57 100 CALM      30.02R
SALEM*         CLEAR     58  56  94 CALM      30.02R
METROPOLIS*    PTCLDY    59  59  99 CALM      30.03S FOG
$$

ILZ067-068-072-073-078-083-087-091-301100-
SOUTHEAST ILLINOIS

CITY           SKY/WX    TMP DP  RH WIND       PRES   REMARKS
LAWRENCEVILLE  CLEAR     59  56  89 S7        30.01R
FLORA*         CLEAR     59  56  90 W6        30.02R
FAIRFIELD*     PTCLDY    57  57 100 CALM      30.01S
HARRISBURG*    FOG       57  57 100 CALM      30.03R VSB 1
ROBINSON*      CLEAR     55  54  94 CALM      30.01S
CARMI*         CLEAR     57  57 100 S3        30.02R
$$

ABBREVIATIONS USED IN REMARKS
   TC - TEMPERATURE IN CELSIUS
  WCI - WIND CHILL INDEX
   HX - HEAT INDEX
  VSB - VISIBILITY
$$





USA.gov is the U.S. government's official web portal to all federal, state and local government web resources and services.